Theta_e
351 348 345 338 321 323 317 321 329 326 323 330 334 329 326 330 325 316 343 346 348 350 356 358 363 360 359 362 363 360 360 359 358 359 361 362 363 364 367 366 365 364 366 364 363 363 362 361 361
348 344 340 336 319 314 316 329 326 327 331 332 331 329 327 324 335 337 339 347 350 352 352 354 362 362 360 362 362 361 363 360 360 362 360 361 362 363 364 364 364 364 365 365 364 363 361 360 360
351 351 333 325 319 315 316 326 329 327 336 334 327 330 329 328 337 338 343 347 349 348 352 357 364 364 360 362 361 361 361 362 359 362 360 360 361 362 362 363 363 363 364 364 363 361 360 359 360
346 337 335 322 319 322 324 331 333 329 330 330 329 324 332 339 338 341 345 345 348 350 354 361 363 362 361 361 361 361 361 360 360 362 361 360 361 361 362 362 363 362 362 363 361 360 359 358 360
346 339 324 320 319 326 332 335 335 330 329 329 329 324 327 337 342 343 343 348 347 350 355 358 365 363 362 362 361 361 360 361 360 363 361 361 361 361 361 362 362 362 361 362 362 360 359 360 360
333 334 319 316 319 326 331 335 335 331 329 329 327 326 328 338 339 340 346 345 349 350 354 356 361 363 362 362 360 362 362 361 361 361 360 360 360 361 361 362 362 361 362 362 362 361 359 359 358
331 327 320 319 319 323 330 339 334 333 326 325 331 323 328 333 339 343 345 346 347 351 352 355 356 360 362 363 361 361 360 360 360 360 361 361 360 360 361 362 362 361 362 362 362 361 360 358 358
337 328 321 319 319 320 332 334 337 334 333 335 334 323 323 332 343 345 345 343 346 348 350 351 355 354 353 356 362 361 360 360 360 361 361 363 361 360 361 363 364 362 362 361 360 360 360 359 358
341 323 318 319 321 326 334 330 337 340 335 336 334 331 334 337 343 341 341 343 344 347 348 352 353 352 353 354 357 359 361 361 360 359 359 359 352 351 355 360 362 362 362 360 359 359 359 357 357
332 320 322 329 328 328 332 329 330 332 332 334 329 334 336 338 338 338 339 338 340 344 347 350 351 352 352 354 353 351 354 352 352 352 351 350 350 347 354 358 361 361 361 360 358 358 357 356 351
332 318 327 329 331 333 329 329 332 331 328 329 326 329 333 335 336 337 338 339 340 344 346 348 349 350 351 352 354 351 352 352 351 351 350 351 348 348 350 350 352 352 354 346 349 351 356 354 352
324 329 329 328 334 331 327 330 329 334 333 340 331 332 331 330 335 336 338 340 340 344 348 350 350 351 350 351 351 351 353 351 350 352 353 349 349 346 346 348 349 347 346 341 336 338 349 350 345
323 327 330 332 335 334 333 331 333 330 339 339 333 332 330 329 330 339 339 341 341 342 347 347 347 347 350 347 348 351 348 351 347 352 351 350 346 341 343 346 351 347 345 344 340 337 347 342 341
328 324 326 331 333 333 330 329 328 328 335 334 331 330 330 329 330 337 340 341 343 345 349 350 351 348 350 346 351 348 349 347 349 350 352 351 348 346 348 347 345 345 351 348 348 347 343 344 339
329 324 329 329 331 331 334 328 324 331 333 333 331 330 330 330 334 336 341 341 342 347 348 347 347 351 350 351 352 349 352 352 349 349 352 354 350 347 346 346 346 343 351 349 348 350 347 344 342
310 314 314 323 331 332 330 319 330 334 333 331 330 330 330 331 334 337 338 340 344 347 345 344 350 351 348 351 351 353 350 344 345 349 350 354 354 346 344 350 350 350 347 348 351 349 347 340 338
306 301 310 319 330 328 327 318 322 335 335 328 329 329 328 330 332 337 339 338 343 345 346 344 346 350 347 349 353 352 345 337 341 341 351 353 354 355 352 352 351 348 349 348 342 342 341 343 342
301 303 309 314 326 326 320 320 329 335 330 328 328 327 326 329 330 337 339 339 344 343 342 347 347 348 345 349 353 353 348 345 345 343 350 354 353 354 353 354 350 354 350 349 347 345 346 344 339
308 307 308 318 326 323 321 320 327 332 330 328 327 325 326 327 331 336 339 340 343 345 341 348 346 350 346 347 347 348 347 344 347 351 352 353 354 354 351 352 351 354 348 343 347 344 345 344 344
306 305 313 320 323 321 318 321 328 332 330 329 327 326 326 329 330 333 336 339 341 342 343 348 349 349 346 346 350 350 351 349 350 351 352 354 355 355 351 351 351 353 352 347 347 346 343 343 340
303 300 311 314 319 322 318 315 317 326 332 330 329 330 330 330 330 331 333 335 341 342 345 350 348 348 351 348 348 348 344 342 347 343 349 355 356 355 354 349 352 351 351 347 347 348 346 343 342
296 307 310 316 311 309 322 304 311 321 327 329 328 330 330 332 334 332 331 333 340 342 346 351 350 348 349 354 347 342 338 333 343 348 350 355 357 354 355 353 352 349 347 346 347 352 345 341 339
302 308 316 314 310 309 311 307 308 318 320 326 331 331 332 332 334 331 331 333 342 344 345 350 351 348 347 353 351 345 344 346 348 348 349 350 354 354 356 354 353 350 346 345 348 348 343 350 343
309 306 313 313 307 301 306 307 308 314 320 321 328 333 335 335 334 333 332 334 340 343 345 348 351 349 349 351 351 348 343 343 344 344 341 347 349 352 354 355 352 352 348 349 348 351 349 350 349
306 300 293 296 298 297 304 306 309 320 322 322 323 325 331 336 335 333 331 333 337 339 343 346 349 349 350 351 351 352 345 344 344 343 343 345 347 350 351 353 353 351 351 352 353 350 351 349 349
301 299 294 291 293 297 306 305 309 320 326 326 327 327 332 331 335 333 335 336 336 338 342 345 347 348 348 352 352 354 351 345 345 346 346 348 350 350 353 352 354 355 353 353 353 350 351 351 349
301 299 303 296 297 294 304 309 317 320 320 327 323 328 331 333 335 337 334 337 339 339 339 344 346 347 349 352 352 353 353 349 344 342 348 349 352 354 352 351 352 355 354 353 351 349 350 349 350
305 307 297 296 291 289 301 303 305 316 323 328 329 331 334 336 328 331 337 338 338 345 345 344 348 348 350 351 354 353 354 354 354 352 352 350 349 350 351 350 349 354 353 353 350 349 351 349 349
302 300 301 298 298 292 295 303 318 320 322 323 326 329 331 327 327 330 336 338 338 342 341 345 345 346 351 351 353 354 354 354 352 355 353 354 348 346 343 346 349 352 354 353 350 349 351 348 348
303 302 300 294 293 302 301 300 321 323 322 322 323 325 328 332 334 336 339 340 338 339 338 341 344 347 347 346 350 353 355 355 354 354 355 354 349 348 344 346 346 350 353 353 352 351 351 350 347
Wind_Speed
8 8 4 2 2 1 3 6 3 1 11 24 18 17 12 11 5 7 17 19 19 14 12 13 14 15 14 12 13 13 13 13 12 13 13 14 14 15 14 15 16 16 16 17 17 16 17 16 15
6 11 3 2 2 3 1 3 2 4 22 23 21 22 20 15 20 22 18 21 19 15 11 11 15 14 14 12 13 12 13 13 12 12 13 13 13 14 15 14 15 15 15 16 16 14 15 15 13
6 10 1 2 4 2 3 6 0 12 18 16 8 13 9 21 22 14 23 22 19 15 11 12 15 14 14 14 13 12 12 13 13 13 13 14 14 14 14 14 15 15 14 15 14 12 12 13 13
4 2 2 2 2 1 7 5 5 19 23 27 23 14 16 16 15 22 26 21 18 15 12 15 16 15 14 14 13 12 12 13 12 12 13 15 14 14 13 14 15 15 14 13 13 12 9 11 12
4 2 3 2 3 4 4 7 8 19 17 20 26 24 23 23 28 27 25 21 19 14 11 11 14 14 14 13 13 12 13 12 12 12 14 14 14 14 13 14 14 13 13 12 12 10 9 10 9
2 2 3 4 4 4 4 7 7 20 19 21 25 24 15 21 25 23 24 22 20 18 12 11 14 15 14 14 13 13 13 13 12 12 13 14 14 14 12 14 14 11 12 13 11 9 6 7 7
1 1 3 5 4 3 2 11 6 4 24 16 23 27 17 16 20 22 23 22 19 16 14 10 8 13 14 14 13 12 12 12 12 13 14 14 14 14 13 14 13 12 13 13 11 9 6 5 7
4 1 2 2 6 3 2 6 6 12 5 15 25 20 20 13 22 23 22 21 19 16 14 12 9 7 7 6 14 13 12 12 11 12 12 13 14 14 14 11 10 13 12 10 8 6 5 3 5
5 3 2 5 11 5 4 6 4 8 5 3 9 18 20 18 25 18 20 19 15 13 13 13 11 8 7 7 8 11 12 11 11 10 12 11 4 6 8 9 11 11 11 9 6 4 3 0 3
5 6 3 4 7 10 8 5 8 6 9 3 21 18 18 16 17 22 19 16 15 16 14 11 10 10 8 8 6 6 6 4 4 6 5 4 4 6 7 8 9 11 9 7 4 2 2 4 3
9 6 8 12 9 17 13 9 8 15 13 21 25 23 17 22 20 18 18 17 17 15 12 12 10 9 4 7 4 3 2 3 3 6 6 4 5 3 4 3 3 3 8 3 3 2 3 5 5
11 15 6 9 12 13 15 14 10 9 8 8 22 18 14 10 19 18 18 15 11 10 13 13 8 7 5 4 4 5 4 4 4 4 5 5 4 4 3 3 3 3 3 4 1 2 5 7 4
7 12 17 15 15 16 16 12 12 9 11 5 18 17 14 9 12 19 15 15 13 11 13 10 6 7 5 3 4 4 4 4 5 5 6 5 4 3 4 4 3 2 2 2 3 3 3 1 7
11 14 9 10 19 17 15 12 4 4 9 7 17 16 11 10 9 20 18 18 18 14 14 14 10 7 9 6 6 4 4 5 4 4 5 6 5 4 3 4 5 2 4 4 4 4 3 2 4
8 5 8 8 20 12 18 13 4 13 12 12 18 16 11 10 12 18 20 17 16 13 13 10 12 9 10 7 5 5 4 5 5 4 6 6 4 6 5 4 4 4 4 4 2 4 1 3 2
5 6 4 5 15 9 10 9 15 11 13 17 21 17 13 10 15 15 14 16 15 15 12 9 11 9 7 7 5 5 5 5 4 3 2 6 5 6 2 3 4 5 3 2 2 1 1 2 3
7 6 6 5 16 14 6 8 5 7 23 20 17 15 14 11 11 15 14 10 16 14 12 9 12 10 8 6 5 6 5 4 3 3 3 4 3 4 4 3 3 3 1 2 2 2 2 1 2
6 8 5 8 12 11 12 8 11 11 19 18 16 12 12 14 10 15 15 12 14 8 9 12 10 10 8 4 4 5 5 2 3 3 3 2 4 3 3 4 2 3 1 2 1 1 3 2 1
13 8 11 14 10 14 6 7 9 11 16 16 15 10 13 14 10 14 16 13 14 10 8 8 12 8 5 3 3 3 4 3 2 3 5 5 5 4 4 3 3 1 3 4 2 1 3 4 2
16 14 5 8 14 8 11 12 10 15 15 15 16 14 16 15 15 14 17 13 14 10 8 10 9 9 5 3 2 3 4 2 4 3 3 6 6 5 4 3 2 3 3 3 3 3 2 1 1
13 9 6 7 16 9 14 7 6 6 10 11 12 6 14 13 16 13 17 14 15 13 9 10 8 8 6 5 4 3 4 3 3 3 4 5 7 6 4 3 3 4 2 1 2 2 2 2 2
9 10 7 20 17 8 11 6 4 6 11 15 15 14 12 10 8 14 14 14 17 14 10 9 8 7 6 6 5 5 5 3 2 3 3 5 6 6 6 5 4 5 3 2 2 2 3 3 2
10 8 16 11 8 10 7 6 8 9 3 15 11 15 14 14 13 15 15 15 17 16 13 11 10 7 6 4 6 5 4 4 2 3 6 3 5 6 7 7 6 4 2 2 1 1 3 2 1
11 7 6 6 5 7 12 20 9 12 16 12 8 7 14 14 16 14 14 15 17 16 14 13 13 8 7 6 7 7 7 7 4 2 1 2 3 4 4 7 6 6 3 4 3 2 3 2 1
6 1 3 1 3 9 12 5 5 14 16 8 6 9 11 10 16 14 14 15 18 17 16 14 12 10 7 8 7 8 7 6 7 6 4 5 4 2 4 4 5 4 4 5 5 3 2 0 1
7 6 5 4 5 10 5 5 5 16 20 19 18 13 7 12 5 5 13 10 19 18 16 16 14 11 9 7 8 7 8 5 4 6 4 5 5 6 6 3 5 6 6 5 5 3 2 1 3
9 7 10 4 5 4 4 6 6 16 12 9 15 7 7 7 7 11 12 12 12 5 4 18 15 14 12 8 7 7 7 7 7 7 6 5 5 4 6 6 5 5 5 6 6 3 3 3 3
6 1 6 3 2 2 4 5 8 18 18 16 17 16 11 7 10 12 8 10 10 10 9 6 10 16 16 13 8 6 7 7 7 6 7 6 5 6 7 7 7 6 6 6 6 3 3 3 3
3 5 2 1 1 6 6 0 11 14 18 18 16 13 12 13 9 10 5 3 3 5 9 14 10 7 11 13 10 8 6 6 5 5 4 6 7 6 6 6 6 7 7 7 6 6 4 5 5
4 5 6 5 6 3 5 3 7 12 16 16 15 14 13 15 13 11 3 1 8 1 4 10 9 8 9 7 4 11 8 7 7 7 7 7 8 7 7 7 7 6 6 7 7 7 6 6 6
Wind_Direction
174 189 195 252 339 192 203 204 200 127 86 69 69 83 89 34 118 138 144 124 127 129 129 122 116 116 115 116 114 106 104 100 99 98 93 92 91 93 92 94 97 99 101 102 104 105 103 102 104
212 205 213 248 247 112 133 342 110 74 91 75 77 86 69 76 102 123 123 132 126 133 125 125 124 121 123 113 112 113 109 103 99 101 100 98 94 92 93 93 95 95 99 98 103 105 106 109 114
251 254 113 204 222 145 165 280 154 97 85 91 82 66 68 114 123 118 131 128 138 126 123 129 129 128 125 119 115 113 111 105 104 101 109 108 101 103 100 98 97 97 90 97 102 103 106 111 99
215 352 344 263 73 212 178 264 312 100 95 103 111 82 120 115 105 127 130 137 116 119 128 135 139 132 124 124 120 114 110 111 110 111 107 107 108 104 102 103 103 102 101 103 104 106 108 98 84
245 20 247 232 73 268 280 6 307 78 79 104 105 115 108 113 126 137 133 123 120 122 130 137 133 128 128 124 123 119 113 111 110 108 110 110 109 108 107 102 99 97 103 108 101 106 102 85 70
74 328 238 152 174 221 320 8 35 106 109 107 102 114 117 136 137 141 130 128 130 133 130 130 136 136 131 131 123 121 116 114 112 108 108 109 108 107 106 104 101 103 107 118 115 110 102 100 89
166 284 297 113 130 125 320 55 34 62 120 117 121 121 134 147 150 128 126 129 133 131 128 131 140 132 130 129 128 123 123 118 120 119 115 113 115 112 110 103 105 115 120 129 130 136 140 127 101
152 44 228 118 158 131 329 89 28 45 26 117 126 139 148 163 127 132 132 133 131 138 142 140 132 123 129 134 133 129 125 125 125 124 122 119 119 112 113 107 112 118 119 126 128 149 146 156 126
69 307 333 153 160 148 160 113 85 101 296 166 148 141 153 152 137 130 124 130 137 144 146 144 150 153 141 129 143 133 136 131 128 134 135 126 124 119 101 121 121 121 121 122 141 167 150 165 274
90 321 299 233 163 157 155 131 120 81 326 248 134 140 152 135 127 132 134 138 145 148 150 148 143 144 155 144 147 147 144 136 146 134 146 149 148 129 126 132 122 107 119 132 130 202 224 234 234
101 222 286 316 172 147 143 129 116 142 189 157 145 153 159 143 148 145 138 146 150 150 143 147 147 152 153 137 156 145 151 158 162 157 151 136 103 111 116 128 136 132 107 41 346 285 249 266 277
122 239 239 263 167 141 150 143 129 106 178 284 141 155 154 155 148 145 142 133 130 117 118 135 143 126 128 138 144 161 162 180 156 170 158 132 132 136 134 163 145 143 167 170 194 295 251 251 242
135 209 208 220 202 161 152 143 132 135 174 222 153 158 164 158 145 134 137 127 124 135 130 143 141 137 158 159 170 177 180 177 163 156 146 119 131 125 151 188 196 192 240 99 224 216 261 72 61
186 200 185 178 210 164 146 101 58 222 192 208 165 158 172 151 152 141 126 137 141 145 136 151 146 143 154 183 158 151 151 142 144 122 145 142 152 175 202 81 119 164 214 213 212 212 107 41 81
188 182 286 182 174 167 127 136 232 171 181 195 169 163 169 167 142 140 141 148 146 140 143 141 130 145 150 155 141 134 92 79 65 26 115 121 142 115 106 109 143 183 192 180 88 52 9 105 147
220 234 177 159 158 131 103 80 176 154 200 236 157 168 164 179 134 133 132 138 142 140 150 153 130 133 158 158 152 115 141 117 108 69 342 96 116 121 119 74 157 195 166 123 54 87 41 118 183
259 223 197 309 164 147 130 140 249 184 202 165 164 172 167 148 127 139 137 134 128 152 155 148 141 144 163 149 128 122 151 137 107 146 107 136 129 123 133 178 173 158 43 178 188 72 105 303 199
227 229 273 164 136 94 85 116 156 242 148 165 169 169 160 150 146 145 141 144 130 154 147 144 141 143 159 138 105 140 121 113 132 199 124 243 159 175 162 176 182 89 138 124 91 222 220 158 152
260 208 212 64 50 84 66 151 181 149 160 166 173 167 159 156 155 154 146 145 142 145 137 133 137 146 142 137 159 163 160 166 125 167 187 209 170 160 121 140 135 131 153 204 134 58 32 31 332
256 268 58 107 78 77 101 223 183 165 166 185 176 174 167 162 162 157 148 147 152 146 142 133 139 140 165 163 98 142 111 71 132 164 182 195 167 164 155 133 141 194 140 137 92 76 21 15 290
247 250 173 157 98 103 124 266 292 281 170 180 173 169 167 152 169 159 154 153 153 150 145 140 151 156 168 123 108 68 68 71 145 175 191 170 161 172 164 161 223 138 110 134 144 88 62 16 325
246 240 242 154 156 149 161 252 167 228 206 180 170 185 181 164 147 166 158 157 156 157 145 136 156 174 184 153 150 150 172 144 215 194 159 153 164 172 178 153 113 127 134 111 203 166 120 97 359
247 253 130 152 167 105 209 231 262 120 236 181 193 185 185 186 177 180 171 157 156 157 159 153 162 187 184 196 157 145 145 118 197 121 120 132 170 182 177 150 156 143 155 161 323 130 134 106 100
263 279 185 170 140 220 198 201 161 172 213 206 180 235 178 193 190 185 167 162 160 165 162 160 157 185 185 177 170 146 163 163 134 113 157 178 185 191 177 158 151 161 184 166 214 203 126 108 51
278 213 293 176 144 245 203 165 191 168 181 194 166 243 259 223 190 181 169 173 163 168 166 164 163 177 187 182 186 162 172 163 165 166 172 186 181 181 207 160 155 164 175 179 148 153 92 82 323
254 199 178 174 192 225 28 110 161 170 176 168 191 222 250 279 157 146 171 166 168 170 166 170 171 173 188 185 195 184 153 167 192 185 184 208 195 178 149 113 169 178 179 170 152 155 183 245 271
283 235 233 282 255 11 113 37 89 166 131 162 213 166 176 203 42 39 26 46 356 105 170 173 177 179 180 194 194 196 167 164 189 225 199 192 156 160 167 180 214 200 197 174 162 173 204 221 261
173 296 11 317 126 151 116 145 173 129 119 110 86 93 119 88 77 57 51 35 17 21 31 26 197 183 186 190 187 200 191 188 199 204 209 159 149 147 162 178 177 199 198 193 168 183 228 215 262
54 325 322 40 130 151 153 84 334 106 115 102 89 89 98 119 105 78 352 100 142 2 53 29 17 300 195 188 186 192 194 197 222 239 219 145 164 175 191 180 177 209 190 189 178 193 204 206 232
256 249 216 136 298 99 102 12 29 74 90 92 89 82 84 95 102 104 124 136 97 275 58 65 348 351 37 355 251 187 180 187 198 225 228 157 169 192 196 185 182 219 200 186 185 188 197 203 211